Location: Paliano
(41.8000°N, 13.0500°E)
Time: 05:07:19
(UTC+00:00)

Daily predictions for brighter satellites

Satellite Brightness Start Highest point End
(mag) Time Altitude Azimuth Time Altitude Azimuth Time Altitude Azimuth
CZ-2D R/B 3.8 00:03:26 10° NE 00:06:55 27° ENE 00:06:55 27° ENE
USA 215 3.5 00:09:35 10° NE 00:16:00 63° NNW 00:16:00 63° NNW
CZ-4C R/B 4.3 00:19:00 16° NW 00:20:48 19° NNW 00:25:02 10° NNE
Cosmos 1605 Rocket 4.3 00:14:58 10° N 00:20:38 62° NE 00:20:38 62° NE
Cosmos 2227 Rocket 3.3 00:38:06 36° E 00:38:06 36° E 00:42:26 10° NE
NPP 4.5 00:32:04 10° NNE 00:36:18 45° ENE 00:36:18 45° ENE
COSMOS 2428 4.0 00:38:18 10° NNW 00:41:13 31° NW 00:41:13 31° NW
USA 267 3.2 00:47:36 56° ESE 00:49:08 82° NE 00:55:43 10° NW
SeaSat 1 3.3 00:45:22 10° NNE 00:48:57 47° NE 00:48:57 47° NE
Cosmos 1140 Rocket 4.4 00:45:57 10° NNW 00:49:37 45° N 00:49:37 45° N
Cosmos 2297 Rocket 2.7 00:54:03 52° E 00:54:03 52° E 00:58:55 10° NNE
Cosmos 2219 Rocket 3.7 00:50:09 10° NW 00:52:37 26° NW 00:52:37 26° NW
SL-16 R/B 2.5 00:57:14 79° NNW 00:57:14 79° NNW 01:03:01 10° NNW
NOSS 3-3 (C) 4.4 01:08:00 48° NW 01:08:19 49° NW 01:14:45 10° NNE
NOSS 3-3 (A) 4.4 01:08:00 48° WNW 01:08:20 48° NW 01:14:46 10° NNE
CZ-4B R/B 4.3 01:10:38 15° ENE 01:10:38 15° ENE 01:12:16 10° NNE
IRS-P3 4.4 01:05:10 10° NNE 01:10:17 61° E 01:10:17 61° E
Resurs 1-4 Rocket 2.4 01:06:53 10° N 01:11:22 62° NNW 01:11:22 62° NNW
Cosmos 1727 Rocket 4.0 01:15:26 68° WNW 01:15:26 68° WNW 01:21:43 10° N
COSMOS 2455 4.3 01:10:43 10° NW 01:13:18 24° WNW 01:13:18 24° WNW
Cosmos 2237 Rocket 2.3 01:12:37 10° NNW 01:17:34 68° NW 01:17:34 68° NW
Cosmos 1980 4.0 01:14:08 10° NNW 01:18:41 57° NW 01:18:41 57° NW
H-2A R/B 4.0 01:24:37 20° NNW 01:24:37 20° NNW 01:26:03 10° NNW
Cosmos 2173 Rocket 4.0 01:18:12 10° N 01:24:29 78° E 01:25:55 55° SSE
SL-16 R/B 3.2 01:20:52 10° NNW 01:26:17 45° ENE 01:31:42 10° SE
Meteor 1-11 4.0 01:25:53 10° N 01:31:31 84° W 01:31:36 83° WSW
Cosmos 2333 Rocket 4.3 01:32:03 10° NW 01:32:55 13° WNW 01:32:55 13° WNW
Meteor 2-10 4.2 01:36:24 65° W 01:36:28 65° WNW 01:42:12 10° N
Cosmos 1741 Rocket 4.4 01:32:53 10° NNW 01:38:10 61° ENE 01:41:01 27° SE
Cosmos 2219 3.9 01:39:16 39° WNW 01:39:32 39° WNW 01:44:56 10° N
Cosmos 1000 Rocket 4.4 01:38:56 64° SSW 01:39:57 82° W 01:46:12 10° N
Cosmos 2082 3.6 01:39:32 70° S 01:40:13 82° ESE 01:45:59 10° NNE
SL-08 R/B 3.3 01:43:08 73° WNW 01:43:08 73° WNW 01:47:48 10° NNW
Cosmos 1812 Rocket 3.7 01:45:22 71° N 01:45:22 71° N 01:49:18 10° N
ATLAS 2AS CENTAUR R/B 2.7 01:39:15 10° NW 01:46:48 66° WSW 01:50:36 29° SSE
Spot 4 Rocket 4.2 01:42:16 10° NNE 01:47:25 66° ESE 01:48:31 51° SSE
CZ-2D R/B 2.9 01:43:15 10° N 01:48:14 37° WNW 01:48:14 37° WNW
Cosmos 2058 4.1 01:44:43 10° N 01:48:36 40° ENE 01:49:57 30° ESE
Cosmos 1726 4.3 01:55:01 18° NNW 01:55:01 18° NNW 01:56:25 10° NNW
Cosmos 2016 Rocket 3.9 01:47:04 10° N 01:53:16 88° ENE 01:55:57 36° S
ARIANE 5 R/B 2.5 01:48:05 10° NNE 01:53:21 89° E 01:54:16 62° SSW
Cosmos 2100 Rocket 4.1 01:48:36 10° NNW 01:54:49 58° W 01:55:55 51° SW
ADEOS II 2.0 01:50:41 10° NNE 01:55:58 87° ESE 01:57:05 57° S
Cosmos 2263 Rocket 4.4 01:53:37 10° SE 01:57:26 19° E 02:01:16 10° ENE
Cosmos 1802 Rocket 3.9 01:53:48 10° NNW 01:59:55 69° W 02:01:48 45° SSW
IRS-1D 4.0 01:57:32 10° N 02:02:24 43° WNW 02:02:47 43° W
Cosmos 1356 4.1 02:03:30 50° N 02:03:30 50° N 02:06:09 10° N
Cosmos 2123 Rocket 3.9 02:06:44 39° SSW 02:09:12 82° W 02:15:29 10° N
Cosmos 1300 2.6 02:11:01 75° NW 02:11:01 75° NW 02:14:40 10° N
BREEZE-M DEB (TANK) 3.9 02:09:51 35° WNW 02:11:02 47° N 02:19:22 10° ENE
Cosmos-2242 3.4 02:10:51 39° SSE 02:12:12 60° E 02:16:26 10° NNE
Cosmos 1459 Rocket 4.3 02:08:38 10° NNW 02:14:24 43° W 02:15:26 39° WSW
Cosmos 1331 Rocket 4.1 02:14:37 36° S 02:16:46 74° ESE 02:22:05 10° NNE
Cosmos 1110 Rocket 3.9 02:17:25 40° SSW 02:19:21 86° ESE 02:24:39 10° NNE
Cosmos 2227 Rocket 3.2 02:19:56 28° W 02:21:19 32° NW 02:26:22 10° N
H-2A R/B 4.4 02:19:04 10° NE 02:22:42 27° E 02:26:10 10° SSE
Cosmos 1452 Rocket 4.5 02:21:53 29° W 02:22:48 30° WNW 02:27:26 10° N
Meteor 1-28 Rocket 3.8 02:21:11 16° SSE 02:23:59 55° ENE 02:27:38 10° N
Cosmos 1076 Rocket 3.7 02:20:13 10° NNW 02:24:15 47° W 02:24:15 47° W
Cosmos 1689 Rocket 2.6 02:26:57 51° NNW 02:26:57 51° NNW 02:29:20 10° NNW
SeaSat 1 4.2 02:23:57 10° N 02:27:21 19° NW 02:28:44 17° WNW
Cosmos 1725 Rocket 4.0 02:24:15 10° NNW 02:30:21 61° W 02:34:24 22° SSW
USA 267 4.3 02:34:49 23° W 02:34:49 23° W 02:38:00 10° WNW
IDEFIX/ARIANE 42P 3.6 02:31:57 10° NNE 02:36:57 44° E 02:41:56 10° S
Cosmos 2297 Rocket 3.6 02:35:52 20° W 02:37:47 24° NW 02:42:19 10° N
Cosmos 2151 3.0 02:34:44 10° N 02:38:57 80° E 02:43:08 10° S
SL-16 R/B 4.3 02:42:20 12° WNW 02:42:20 12° WNW 02:43:51 10° WNW
CZ-4B R/B 3.2 02:43:57 18° NW 02:43:57 18° NW 02:45:13 10° NW
Spot 2 4.4 02:41:21 10° NNE 02:46:32 82° WNW 02:50:11 19° SSW
RUBIN 8/PSLV 4.4 02:45:12 10° NNE 02:49:30 85° WNW 02:52:23 20° SSW
Cosmos 1408 4.1 02:47:22 10° N 02:50:43 36° ENE 02:54:02 10° SSE
Cosmos 1461 4.5 02:49:47 18° WNW 02:51:02 21° NW 02:54:07 10° N
Resurs 1-4 Rocket 4.2 02:50:15 10° NW 02:51:02 10° NW 02:51:49 10° WNW
NOSS 3-4 (A) 4.3 02:45:38 10° NW 02:52:14 40° WSW 02:59:20 10° S
NOSS 3-4 (C) 4.2 02:45:44 10° NW 02:52:21 40° WSW 02:59:27 10° S
Intercosmos 25 Rocket 4.0 02:52:28 27° W 02:52:34 27° WNW 02:55:21 10° NNW
Cosmos 1892 2.6 02:50:49 10° N 02:54:40 81° W 02:58:31 10° S
Okean 3 Rocket 3.9 02:52:22 10° NNW 02:56:33 44° W 02:59:21 19° SSW
RESURS DK-1 4.1 02:53:16 10° N 02:57:06 35° ENE 03:00:54 10° SE
Cosmos 1943 4.1 02:51:46 10° NNW 02:57:20 51° ENE 03:02:52 10° SE
Cosmos 1766 Rocket 3.6 02:54:52 10° NNW 02:59:16 58° W 03:03:39 10° S
Cosmos 1603 3.9 02:56:01 10° NNW 03:01:40 77° ENE 03:07:18 10° SSE
PSLV R/B 3.5 02:59:18 10° NNE 03:03:40 89° SE 03:07:59 10° SSW
SL-16 R/B 3.1 03:05:30 10° NW 03:10:07 26° WSW 03:14:44 10° SSW
CZ-2C R/B 4.2 03:09:57 10° NNW 03:13:09 23° WNW 03:14:50 18° WSW
CZ-2C R/B 3.4 03:15:57 10° NNE 03:20:20 45° E 03:24:45 10° S
IRIS 4.2 03:20:11 20° W 03:21:45 51° SSW 03:25:08 10° ESE
Cosmos 1842 Rocket 3.6 03:23:35 10° SSW 03:27:58 66° W 03:32:21 10° N
CRYOSAT 2 4.3 03:24:35 10° S 03:29:29 78° W 03:34:23 10° N
Cosmos 1238 Rocket 2.5 03:27:11 10° NNW 03:30:01 41° W 03:33:04 10° SSW
Cosmos 2221 2.5 03:27:45 10° S 03:32:07 88° W 03:36:33 10° N
PAYLOAD A 4.2 03:27:05 10° NNE 03:32:23 80° ESE 03:37:27 10° S
Cosmos 1302 Rocket 4.5 03:28:20 11° SW 03:33:06 44° WNW 03:38:05 10° N
ADEOS II 4.0 03:32:33 10° NNW 03:34:55 13° WNW 03:37:16 10° W
ATLAS 2AS CENTAUR R/B 4.3 03:34:35 10° W 03:36:09 11° W 03:37:42 10° WSW
CZ-3 R/B 4.0 03:20:04 10° SW 03:39:00 30° S 03:45:48 10° ESE
Cosmos 1500 Rocket 3.5 03:35:21 10° NNW 03:39:40 71° W 03:43:57 10° S
Cosmos 371 Rocket 4.2 03:35:40 11° SW 03:39:58 33° WNW 03:44:24 10° N
ADEOS 4.2 03:35:18 10° N 03:40:06 38° WNW 03:44:52 10° SW
Cosmos 1486 Rocket 4.0 03:35:10 10° NNW 03:40:19 63° WSW 03:45:28 10° S
Cosmos 2263 Rocket 2.3 03:35:11 10° SW 03:40:46 62° WNW 03:46:27 10° NNE
Cosmos 2034 Rocket 4.1 03:38:04 10° N 03:44:24 88° W 03:50:37 10° S
Cosmos 1455 3.2 03:42:15 10° SW 03:45:27 27° WNW 03:48:42 10° NNW
Cosmos 1464 Rocket 4.1 03:40:59 10° NNW 03:47:07 61° W 03:53:17 10° S
Meteor 2-3 Rocket 3.7 03:45:09 10° NNW 03:50:45 79° W 03:56:19 10° S
